User: anonymous   Login
Location: Vancouver
(49.2500°N, 123.1330°W)
Time: 12:11:06
(UTC-07:00)
Language:

Cosmos 1340 Rocket - Orbit

View from above orbital plane
View from above orbital plane
View from above satellite
View from above satellite

Ground track
Ground track

The orbit data is extracted from the following two-line orbital elements,

1 13068U 82013B   17174.93595618 +.00000358 +00000-0 +22308-4 0  9993
2 13068 081.2036 214.7618 0021142 295.0606 064.8423 15.06939437924242
Epoch (UTC): 23 June 2017 22:27:46
Eccentricity: 0.0021142
inclination: 81.2036°
perigee height: 531 km
apogee height: 560 km
right ascension of ascending node: 214.7618°
argument of perigee: 295.0606°
revolutions per day: 15.06939437
mean anomaly at epoch: 64.8423°
orbit number at epoch: 92424

The dashed part of the orbit path shows where the satellite is in the earth's shadow,  

DLR